| time (UTC) | temp F | wind direction | speed MPH | gust MPH | rain 1hr in | rain 24hr in | rain mn in | humidity % | barometer mb |
| 20260507025503 | 55 | 247 | 8.0 | 17.0 | 0.00 | 0.00 | 0.00 | 84 | 1018.6 |
| 20260507025003 | 55 | 241 | 8.0 | 17.0 | 0.00 | 0.00 | 0.00 | 84 | 1018.7 |
| 20260507024503 | 55 | 236 | 8.0 | 17.0 | 0.00 | 0.00 | 0.00 | 83 | 1018.7 |
| 20260507024003 | 55 | 238 | 8.0 | 17.0 | 0.00 | 0.00 | 0.00 | 83 | 1018.7 |
| 20260507023503 | 56 | 242 | 8.0 | 17.0 | 0.00 | 0.00 | 0.00 | 83 | 1018.7 |
| 20260507023003 | 56 | 243 | 7.0 | 16.0 | 0.00 | 0.00 | 0.00 | 83 | 1018.7 |
| 20260507022503 | 56 | 243 | 7.0 | 16.0 | 0.00 | 0.00 | 0.00 | 82 | 1018.7 |
| 20260507022003 | 56 | 250 | 7.0 | 15.0 | 0.00 | 0.00 | 0.00 | 82 | 1018.8 |
| 20260507021503 | 56 | 248 | 7.0 | 15.0 | 0.00 | 0.00 | 0.00 | 82 | 1018.8 |
| 20260507021003 | 56 | 242 | 8.0 | 15.0 | 0.00 | 0.00 | 0.00 | 81 | 1018.7 |
| 20260507020503 | 57 | 241 | 8.0 | 15.0 | 0.00 | 0.00 | 0.00 | 81 | 1018.7 |
| 20260507020003 | 57 | 243 | 7.0 | 15.0 | 0.00 | 0.00 | 0.00 | 81 | 1018.8 |
| 20260507015503 | 57 | 235 | 7.0 | 17.0 | 0.00 | 0.00 | 0.00 | 80 | 1018.8 |
| 20260507015003 | 57 | 231 | 8.0 | 17.0 | 0.00 | 0.00 | 0.00 | 80 | 1018.7 |
| 20260507014503 | 58 | 236 | 8.0 | 17.0 | 0.00 | 0.00 | 0.00 | 80 | 1018.8 |
| 20260507014003 | 58 | 239 | 8.0 | 15.0 | 0.00 | 0.00 | 0.00 | 79 | 1018.7 |
| 20260507013524 | 58 | 233 | 8.0 | 18.0 | 0.00 | 0.00 | 0.00 | 79 | 1018.8 |
| 20260507013003 | 58 | 234 | 8.0 | 18.0 | 0.00 | 0.00 | 0.00 | 78 | 1018.7 |
| 20260507012524 | 58 | 235 | 8.0 | 17.0 | 0.00 | 0.00 | 0.00 | 78 | 1018.7 |
| 20260507012003 | 58 | 235 | 8.0 | 22.0 | 0.00 | 0.00 | 0.00 | 78 | 1018.7 |
| 20260507011503 | 59 | 237 | 9.0 | 22.0 | 0.00 | 0.00 | 0.00 | 77 | 1018.8 |
| 20260507011003 | 59 | 232 | 8.0 | 19.0 | 0.00 | 0.00 | 0.00 | 76 | 1018.8 |
| 20260507010524 | 60 | 233 | 7.0 | 18.0 | 0.00 | 0.00 | 0.00 | 75 | 1018.9 |
| 20260507010003 | 60 | 233 | 7.0 | 18.0 | 0.00 | 0.00 | 0.00 | 76 | 1018.8 |
| 20260507005503 | 60 | 232 | 8.0 | 18.0 | 0.00 | 0.00 | 0.00 | 75 | 1018.7 |
| 20260507005003 | 61 | 230 | 9.0 | 19.0 | 0.00 | 0.00 | 0.00 | 74 | 1018.8 |
| 20260507004503 | 61 | 227 | 10.0 | 19.0 | 0.00 | 0.00 | 0.00 | 74 | 1018.8 |
| 20260507004003 | 61 | 229 | 9.0 | 19.0 | 0.00 | 0.00 | 0.00 | 73 | 1018.8 |
| 20260507003503 | 62 | 229 | 8.0 | 17.0 | 0.00 | 0.00 | 0.00 | 73 | 1018.8 |
| 20260507003003 | 62 | 225 | 8.0 | 17.0 | 0.00 | 0.00 | 0.00 | 72 | 1018.8 |
| 20260507002503 | 63 | 233 | 8.0 | 14.0 | 0.00 | 0.00 | 0.00 | 72 | 1018.9 |
| 20260507002003 | 63 | 240 | 7.0 | 17.0 | 0.00 | 0.00 | 0.00 | 72 | 1018.9 |
| 20260507001503 | 63 | 238 | 6.0 | 17.0 | 0.00 | 0.00 | 0.00 | 72 | 1018.8 |
| 20260507001003 | 64 | 236 | 6.0 | 15.0 | 0.00 | 0.00 | 0.00 | 72 | 1018.9 |
| 20260507000503 | 63 | 231 | 7.0 | 18.0 | 0.00 | 0.00 | 0.00 | 73 | 1019.0 |
| 20260507000003 | 63 | 232 | 9.0 | 18.0 | 0.00 | 0.00 | 0.00 | 72 | 1019.0 |
| 20260506235503 | 63 | 235 | 9.0 | 18.0 | 0.00 | 0.00 | 0.00 | 72 | 1019.0 |
| 20260506235003 | 63 | 235 | 9.0 | 18.0 | 0.00 | 0.00 | 0.00 | 72 | 1019.0 |
| 20260506234503 | 63 | 232 | 9.0 | 16.0 | 0.00 | 0.00 | 0.00 | 71 | 1018.9 |
| 20260506234003 | 64 | 226 | 8.0 | 16.0 | 0.00 | 0.00 | 0.00 | 72 | 1019.0 |
| 20260506233503 | 64 | 223 | 7.0 | 16.0 | 0.00 | 0.00 | 0.00 | 71 | 1019.0 |
| 20260506233003 | 64 | 232 | 8.0 | 17.0 | 0.00 | 0.00 | 0.00 | 72 | 1019.1 |
| 20260506232503 | 64 | 235 | 8.0 | 17.0 | 0.00 | 0.00 | 0.00 | 71 | 1019.1 |
| 20260506232003 | 64 | 236 | 8.0 | 15.0 | 0.00 | 0.00 | 0.00 | 72 | 1019.1 |
| 20260506231524 | 64 | 238 | 8.0 | 16.0 | 0.00 | 0.00 | 0.00 | 72 | 1019.1 |
| 20260506231003 | 64 | 238 | 9.0 | 18.0 | 0.00 | 0.00 | 0.00 | 71 | 1019.2 |
| 20260506230503 | 64 | 238 | 8.0 | 18.0 | 0.00 | 0.00 | 0.00 | 70 | 1019.2 |
| 20260506230003 | 65 | 241 | 7.0 | 17.0 | 0.00 | 0.00 | 0.00 | 69 | 1019.2 |
| 20260506225503 | 65 | 245 | 8.0 | 16.0 | 0.00 | 0.00 | 0.00 | 70 | 1019.3 |
| 20260506225003 | 65 | 243 | 8.0 | 17.0 | 0.00 | 0.00 | 0.00 | 69 | 1019.3 |
| 20260506224503 | 65 | 236 | 8.0 | 17.0 | 0.00 | 0.00 | 0.00 | 70 | 1019.4 |
| 20260506224003 | 65 | 231 | 8.0 | 16.0 | 0.00 | 0.00 | 0.00 | 71 | 1019.4 |
| 20260506223503 | 65 | 234 | 9.0 | 17.0 | 0.00 | 0.00 | 0.00 | 69 | 1019.5 |
| 20260506223024 | 65 | 238 | 8.0 | 17.0 | 0.00 | 0.00 | 0.00 | 68 | 1019.6 |
| 20260506222503 | 66 | 245 | 7.0 | 16.0 | 0.00 | 0.00 | 0.00 | 68 | 1019.6 |
| 20260506222003 | 66 | 243 | 7.0 | 15.0 | 0.00 | 0.00 | 0.00 | 68 | 1019.7 |
| 20260506221504 | 67 | 236 | 7.0 | 17.0 | 0.00 | 0.00 | 0.00 | 68 | 1019.7 |
| 20260506221024 | 67 | 238 | 8.0 | 17.0 | 0.00 | 0.00 | 0.00 | 69 | 1019.8 |
| 20260506220524 | 66 | 240 | 8.0 | 14.0 | 0.00 | 0.00 | 0.00 | 67 | 1019.9 |
| 20260506220003 | 66 | 239 | 8.0 | 16.0 | 0.00 | 0.00 | 0.00 | 67 | 1019.8 |
| 20260506215503 | 67 | 239 | 7.0 | 15.0 | 0.00 | 0.00 | 0.00 | 67 | 1020.0 |
| 20260506215003 | 67 | 239 | 7.0 | 15.0 | 0.00 | 0.00 | 0.00 | 67 | 1020.1 |
| 20260506214503 | 67 | 238 | 8.0 | 15.0 | 0.00 | 0.00 | 0.00 | 66 | 1020.0 |
| 20260506214003 | 68 | 242 | 7.0 | 14.0 | 0.00 | 0.00 | 0.00 | 66 | 1020.1 |
| 20260506213503 | 68 | 245 | 7.0 | 14.0 | 0.00 | 0.00 | 0.00 | 66 | 1020.1 |
| 20260506213003 | 68 | 246 | 7.0 | 14.0 | 0.00 | 0.00 | 0.00 | 66 | 1020.2 |
| 20260506212503 | 67 | 239 | 7.0 | 14.0 | 0.00 | 0.00 | 0.00 | 67 | 1020.1 |
| 20260506212003 | 68 | 238 | 7.0 | 14.0 | 0.00 | 0.00 | 0.00 | 66 | 1020.1 |
| 20260506211503 | 68 | 242 | 7.0 | 13.0 | 0.00 | 0.00 | 0.00 | 66 | 1020.1 |
| 20260506211003 | 68 | 236 | 6.0 | 12.0 | 0.00 | 0.00 | 0.00 | 65 | 1020.1 |
| 20260506210503 | 68 | 234 | 6.0 | 13.0 | 0.00 | 0.00 | 0.00 | 67 | 1020.1 |
| 20260506210003 | 68 | 238 | 6.0 | 13.0 | 0.00 | 0.00 | 0.00 | 67 | 1020.2 |
| 20260506205503 | 67 | 239 | 6.0 | 13.0 | 0.00 | 0.00 | 0.00 | 66 | 1020.2 |
| 20260506205003 | 68 | 234 | 6.0 | 13.0 | 0.00 | 0.00 | 0.00 | 65 | 1020.2 |
| 20260506204503 | 69 | 230 | 6.0 | 13.0 | 0.00 | 0.00 | 0.00 | 65 | 1020.3 |
| 20260506204003 | 69 | 231 | 6.0 | 12.0 | 0.00 | 0.00 | 0.00 | 64 | 1020.3 |
| 20260506203503 | 69 | 231 | 5.0 | 11.0 | 0.00 | 0.00 | 0.00 | 65 | 1020.3 |
| 20260506203024 | 68 | 235 | 6.0 | 13.0 | 0.00 | 0.00 | 0.00 | 65 | 1020.3 |
| 20260506202503 | 70 | 240 | 5.0 | 13.0 | 0.00 | 0.00 | 0.00 | 63 | 1020.4 |
| 20260506202024 | 70 | 242 | 5.0 | 10.0 | 0.00 | 0.00 | 0.00 | 65 | 1020.4 |
| 20260506201503 | 69 | 235 | 6.0 | 11.0 | 0.00 | 0.00 | 0.00 | 65 | 1020.5 |
| 20260506201003 | 69 | 233 | 6.0 | 11.0 | 0.00 | 0.00 | 0.00 | 65 | 1020.5 |
| 20260506200503 | 70 | 230 | 5.0 | 12.0 | 0.00 | 0.00 | 0.00 | 64 | 1020.6 |
| 20260506200003 | 70 | 228 | 6.0 | 13.0 | 0.00 | 0.00 | 0.00 | 65 | 1020.6 |
| 20260506195503 | 69 | 225 | 6.0 | 14.0 | 0.00 | 0.00 | 0.00 | 65 | 1020.6 |
| 20260506195003 | 70 | 214 | 6.0 | 14.0 | 0.00 | 0.00 | 0.00 | 65 | 1020.6 |
| 20260506194503 | 69 | 210 | 6.0 | 12.0 | 0.00 | 0.00 | 0.00 | 66 | 1020.7 |
| 20260506194003 | 69 | 214 | 6.0 | 12.0 | 0.00 | 0.00 | 0.00 | 64 | 1020.7 |
| 20260506193524 | 69 | 218 | 5.0 | 12.0 | 0.00 | 0.00 | 0.00 | 65 | 1020.7 |
| 20260506193003 | 69 | 217 | 5.0 | 12.0 | 0.00 | 0.00 | 0.00 | 64 | 1020.8 |
| 20260506192503 | 69 | 213 | 5.0 | 11.0 | 0.00 | 0.00 | 0.00 | 69 | 1020.8 |
| 20260506192003 | 68 | 220 | 6.0 | 14.0 | 0.00 | 0.00 | 0.00 | 66 | 1020.9 |
| 20260506191503 | 68 | 229 | 6.0 | 14.0 | 0.00 | 0.00 | 0.00 | 68 | 1021.0 |
| 20260506191003 | 68 | 222 | 5.0 | 13.0 | 0.00 | 0.00 | 0.00 | 67 | 1020.9 |
| 20260506190503 | 68 | 223 | 5.0 | 11.0 | 0.00 | 0.00 | 0.00 | 66 | 1021.0 |
| 20260506190003 | 68 | 235 | 4.0 | 10.0 | 0.00 | 0.00 | 0.00 | 67 | 1021.1 |
| 20260506185503 | 68 | 230 | 5.0 | 10.0 | 0.00 | 0.00 | 0.00 | 67 | 1021.1 |
| 20260506185003 | 68 | 223 | 5.0 | 14.0 | 0.00 | 0.00 | 0.00 | 66 | 1021.0 |
| 20260506184503 | 68 | 214 | 4.0 | 14.0 | 0.00 | 0.00 | 0.00 | 66 | 1021.0 |
| 20260506184003 | 68 | 205 | 4.0 | 13.0 | 0.00 | 0.00 | 0.00 | 67 | 1021.0 |
| 20260506183524 | 68 | 218 | 4.0 | 11.0 | 0.00 | 0.00 | 0.00 | 68 | 1021.1 |
| 20260506183003 | 67 | 215 | 5.0 | 13.0 | 0.00 | 0.00 | 0.00 | 68 | 1021.1 |
| 20260506182503 | 67 | 202 | 4.0 | 13.0 | 0.00 | 0.00 | 0.00 | 66 | 1021.1 |
| 20260506182003 | 67 | 212 | 4.0 | 9.0 | 0.00 | 0.00 | 0.00 | 67 | 1021.0 |
| 20260506181503 | 67 | 228 | 5.0 | 12.0 | 0.00 | 0.00 | 0.00 | 70 | 1021.1 |
| 20260506181003 | 66 | 234 | 5.0 | 12.0 | 0.00 | 0.00 | 0.00 | 69 | 1021.1 |
| 20260506180503 | 66 | 222 | 5.0 | 12.0 | 0.00 | 0.00 | 0.00 | 68 | 1021.1 |
| 20260506180024 | 66 | 219 | 5.0 | 13.0 | 0.00 | 0.00 | 0.00 | 69 | 1021.0 |
| 20260506175503 | 66 | 217 | 5.0 | 13.0 | 0.00 | 0.00 | 0.00 | 68 | 1020.9 |
| 20260506175003 | 66 | 208 | 4.0 | 12.0 | 0.00 | 0.00 | 0.00 | 70 | 1021.0 |
| 20260506174504 | 66 | 220 | 5.0 | 10.0 | 0.00 | 0.00 | 0.00 | 71 | 1021.0 |
| 20260506174003 | 65 | 234 | 4.0 | 10.0 | 0.00 | 0.00 | 0.00 | 69 | 1021.0 |
| 20260506173503 | 64 | 243 | 4.0 | 10.0 | 0.00 | 0.00 | 0.00 | 72 | 1021.0 |
| 20260506173003 | 63 | 225 | 4.0 | 10.0 | 0.00 | 0.00 | 0.00 | 72 | 1021.1 |
| 20260506172503 | 64 | 209 | 4.0 | 8.0 | 0.00 | 0.00 | 0.00 | 71 | 1021.0 |
| 20260506172003 | 64 | 224 | 3.0 | 7.0 | 0.00 | 0.00 | 0.00 | 74 | 1021.1 |
| 20260506171503 | 61 | 238 | 4.0 | 8.0 | 0.00 | 0.00 | 0.00 | 75 | 1021.2 |
| 20260506171024 | 61 | 246 | 4.0 | 8.0 | 0.00 | 0.00 | 0.00 | 74 | 1021.2 |
| 20260506170503 | 61 | 220 | 4.0 | 8.0 | 0.00 | 0.00 | 0.00 | 75 | 1021.2 |
| 20260506170003 | 61 | 208 | 3.0 | 8.0 | 0.00 | 0.00 | 0.00 | 74 | 1021.1 |
| 20260506165503 | 62 | 219 | 3.0 | 10.0 | 0.00 | 0.00 | 0.00 | 73 | 1021.0 |
| 20260506165003 | 63 | 206 | 3.0 | 10.0 | 0.00 | 0.00 | 0.00 | 73 | 1021.1 |
| 20260506164524 | 63 | 208 | 3.0 | 8.0 | 0.00 | 0.00 | 0.00 | 75 | 1021.0 |
| 20260506164024 | 62 | 208 | 2.0 | 8.0 | 0.00 | 0.00 | 0.00 | 76 | 1021.0 |
| 20260506163503 | 61 | 222 | 3.0 | 6.0 | 0.00 | 0.00 | 0.00 | 75 | 1021.0 |
| 20260506163003 | 61 | 233 | 3.0 | 7.0 | 0.00 | 0.00 | 0.00 | 74 | 1021.0 |
| 20260506162503 | 62 | 238 | 3.0 | 7.0 | 0.00 | 0.00 | 0.00 | 74 | 1021.1 |
| 20260506162003 | 62 | 241 | 3.0 | 8.0 | 0.00 | 0.00 | 0.00 | 74 | 1021.1 |
| 20260506161503 | 62 | 230 | 2.0 | 8.0 | 0.00 | 0.00 | 0.00 | 76 | 1021.1 |
| 20260506161003 | 60 | 218 | 2.0 | 5.0 | 0.00 | 0.00 | 0.00 | 78 | 1021.0 |
| 20260506160503 | 60 | 222 | 2.0 | 4.0 | 0.00 | 0.00 | 0.00 | 78 | 1021.0 |
| 20260506160003 | 59 | 234 | 2.0 | 4.0 | 0.00 | 0.00 | 0.00 | 78 | 1021.0 |
| 20260506155503 | 59 | 241 | 2.0 | 5.0 | 0.00 | 0.00 | 0.00 | 79 | 1021.0 |
| 20260506155003 | 58 | 244 | 2.0 | 8.0 | 0.00 | 0.00 | 0.00 | 79 | 1021.0 |
| 20260506154503 | 59 | 249 | 1.0 | 8.0 | 0.00 | 0.00 | 0.00 | 80 | 1021.1 |
| 20260506154003 | 59 | 246 | 1.0 | 7.0 | 0.00 | 0.00 | 0.00 | 80 | 1021.0 |
| 20260506153503 | 58 | 231 | 2.0 | 7.0 | 0.00 | 0.00 | 0.00 | 79 | 1021.0 |
| 20260506153003 | 58 | 214 | 2.0 | 6.0 | 0.00 | 0.00 | 0.00 | 80 | 1021.0 |
| 20260506152503 | 58 | 228 | 2.0 | 7.0 | 0.00 | 0.00 | 0.00 | 79 | 1021.0 |
| 20260506152003 | 59 | 247 | 2.0 | 7.0 | 0.00 | 0.00 | 0.00 | 80 | 1021.0 |
| 20260506151503 | 59 | 249 | 2.0 | 6.0 | 0.00 | 0.00 | 0.00 | 80 | 1020.9 |
| 20260506151003 | 59 | 246 | 2.0 | 5.0 | 0.00 | 0.00 | 0.00 | 81 | 1020.9 |
| 20260506150503 | 58 | 242 | 2.0 | 5.0 | 0.00 | 0.00 | 0.00 | 82 | 1020.9 |
| 20260506150003 | 57 | 239 | 2.0 | 7.0 | 0.00 | 0.00 | 0.00 | 83 | 1020.8 |
| 20260506145503 | 57 | 231 | 3.0 | 7.0 | 0.00 | 0.00 | 0.00 | 84 | 1020.9 |
| 20260506145003 | 57 | 236 | 2.0 | 6.0 | 0.00 | 0.00 | 0.00 | 86 | 1020.9 |
| 20260506144503 | 56 | 251 | 2.0 | 5.0 | 0.00 | 0.00 | 0.00 | 86 | 1020.8 |
| 20260506144003 | 56 | 245 | 3.0 | 6.0 | 0.00 | 0.00 | 0.00 | 87 | 1020.8 |
| 20260506143503 | 55 | 240 | 2.0 | 6.0 | 0.00 | 0.00 | 0.00 | 86 | 1020.8 |
| 20260506143003 | 55 | 220 | 2.0 | 7.0 | 0.00 | 0.00 | 0.00 | 86 | 1020.8 |
| 20260506142503 | 54 | 228 | 3.0 | 9.0 | 0.00 | 0.00 | 0.00 | 86 | 1020.8 |
| 20260506142003 | 54 | 243 | 2.0 | 9.0 | 0.00 | 0.00 | 0.00 | 86 | 1020.7 |
| 20260506141524 | 54 | 241 | 2.0 | 6.0 | 0.00 | 0.00 | 0.00 | 86 | 1020.6 |
| 20260506141003 | 54 | 238 | 2.0 | 6.0 | 0.00 | 0.00 | 0.00 | 86 | 1020.5 |
| 20260506140503 | 53 | 234 | 2.0 | 6.0 | 0.00 | 0.00 | 0.00 | 86 | 1020.5 |
| 20260506140003 | 53 | 233 | 1.0 | 4.0 | 0.00 | 0.00 | 0.00 | 86 | 1020.5 |
| 20260506135503 | 53 | 235 | 0.0 | 4.0 | 0.00 | 0.00 | 0.00 | 86 | 1020.4 |
| 20260506135003 | 53 | 240 | 0.0 | 2.0 | 0.00 | 0.00 | 0.00 | 86 | 1020.3 |
| 20260506134503 | 53 | 92 | 0.0 | 2.0 | 0.00 | 0.00 | 0.00 | 86 | 1020.3 |
| 20260506134003 | 53 | 81 | 0.0 | 2.0 | 0.00 | 0.00 | 0.00 | 86 | 1020.3 |
| 20260506133503 | 53 | 79 | 0.0 | 1.0 | 0.00 | 0.00 | 0.00 | 86 | 1020.3 |
| 20260506133003 | 54 | 312 | 0.0 | 2.0 | 0.00 | 0.00 | 0.00 | 86 | 1020.3 |
| 20260506132503 | 53 | 293 | 0.0 | 2.0 | 0.00 | 0.00 | 0.00 | 86 | 1020.2 |
| 20260506132003 | 53 | 288 | 0.0 | 2.0 | 0.00 | 0.00 | 0.00 | 86 | 1020.2 |
| 20260506131503 | 53 | 288 | 0.0 | 1.0 | 0.00 | 0.00 | 0.00 | 86 | 1020.2 |
| 20260506131003 | 53 | 290 | 0.0 | 2.0 | 0.00 | 0.00 | 0.00 | 86 | 1020.1 |
| 20260506130503 | 53 | 273 | 1.0 | 6.0 | 0.00 | 0.00 | 0.00 | 86 | 1020.1 |
| 20260506130003 | 53 | 267 | 1.0 | 6.0 | 0.00 | 0.00 | 0.00 | 85 | 1020.1 |
| 20260506125503 | 53 | 283 | 0.0 | 1.0 | 0.00 | 0.00 | 0.00 | 85 | 1020.1 |
| 20260506125003 | 53 | 283 | 0.0 | 1.0 | 0.00 | 0.00 | 0.00 | 85 | 1020.0 |
| 20260506124503 | 53 | 285 | 0.0 | 2.0 | 0.00 | 0.00 | 0.00 | 85 | 1020.0 |
| 20260506124003 | 53 | 293 | 0.0 | 2.0 | 0.00 | 0.00 | 0.00 | 85 | 1020.0 |
| 20260506123503 | 53 | 304 | 0.0 | 2.0 | 0.00 | 0.00 | 0.00 | 85 | 1020.0 |
| 20260506123003 | 53 | 307 | 0.0 | 2.0 | 0.00 | 0.01 | 0.00 | 85 | 1019.9 |
| 20260506122503 | 53 | 308 | 0.0 | 2.0 | 0.00 | 0.01 | 0.00 | 85 | 1019.9 |
| 20260506122003 | 53 | 299 | 0.0 | 2.0 | 0.00 | 0.01 | 0.00 | 85 | 1019.9 |
| 20260506121503 | 53 | 297 | 0.0 | 2.0 | 0.00 | 0.01 | 0.00 | 85 | 1019.8 |
| 20260506121003 | 53 | 303 | 1.0 | 3.0 | 0.00 | 0.01 | 0.00 | 85 | 1019.9 |
| 20260506120503 | 53 | 316 | 1.0 | 3.0 | 0.00 | 0.01 | 0.00 | 85 | 1019.8 |
| 20260506120003 | 53 | 324 | 1.0 | 3.0 | 0.00 | 0.01 | 0.00 | 85 | 1019.8 |
| 20260506115503 | 53 | 325 | 0.0 | 2.0 | 0.00 | 0.01 | 0.00 | 85 | 1019.8 |
| 20260506115003 | 53 | 301 | 1.0 | 5.0 | 0.00 | 0.01 | 0.00 | 85 | 1019.8 |
| 20260506114503 | 53 | 302 | 1.0 | 5.0 | 0.00 | 0.01 | 0.00 | 85 | 1019.7 |
| 20260506114003 | 53 | 312 | 1.0 | 4.0 | 0.00 | 0.01 | 0.00 | 85 | 1019.7 |
| 20260506113524 | 53 | 305 | 1.0 | 4.0 | 0.00 | 0.01 | 0.00 | 85 | 1019.7 |
| 20260506113003 | 52 | 303 | 1.0 | 3.0 | 0.00 | 0.01 | 0.00 | 85 | 1019.6 |
| 20260506112503 | 52 | 303 | 1.0 | 3.0 | 0.00 | 0.01 | 0.00 | 85 | 1019.6 |
| 20260506112003 | 52 | 312 | 1.0 | 3.0 | 0.00 | 0.01 | 0.00 | 85 | 1019.5 |
| 20260506111503 | 52 | 326 | 1.0 | 3.0 | 0.00 | 0.01 | 0.00 | 85 | 1019.5 |
| 20260506111003 | 52 | 312 | 1.0 | 3.0 | 0.00 | 0.01 | 0.00 | 84 | 1019.4 |
| 20260506110503 | 52 | 307 | 1.0 | 3.0 | 0.00 | 0.01 | 0.00 | 84 | 1019.4 |
| 20260506110024 | 52 | 312 | 1.0 | 3.0 | 0.00 | 0.01 | 0.00 | 84 | 1019.4 |
| 20260506105503 | 52 | 303 | 1.0 | 3.0 | 0.00 | 0.01 | 0.00 | 84 | 1019.3 |
| 20260506105003 | 52 | 319 | 1.0 | 3.0 | 0.00 | 0.01 | 0.00 | 84 | 1019.3 |
| 20260506104503 | 52 | 319 | 1.0 | 4.0 | 0.00 | 0.01 | 0.00 | 84 | 1019.4 |
| 20260506104003 | 52 | 302 | 1.0 | 4.0 | 0.00 | 0.01 | 0.00 | 84 | 1019.3 |
| 20260506103503 | 52 | 295 | 0.0 | 3.0 | 0.00 | 0.01 | 0.00 | 84 | 1019.3 |
| 20260506103003 | 52 | 271 | 0.0 | 3.0 | 0.00 | 0.01 | 0.00 | 84 | 1019.3 |
| 20260506102503 | 52 | 250 | 1.0 | 3.0 | 0.00 | 0.01 | 0.00 | 84 | 1019.3 |
| 20260506102003 | 52 | 249 | 1.0 | 3.0 | 0.00 | 0.01 | 0.00 | 84 | 1019.2 |
| 20260506101503 | 52 | 265 | 1.0 | 3.0 | 0.00 | 0.01 | 0.00 | 84 | 1019.2 |
| 20260506101003 | 52 | 272 | 1.0 | 3.0 | 0.00 | 0.01 | 0.00 | 84 | 1019.2 |
| 20260506100503 | 52 | 267 | 1.0 | 3.0 | 0.00 | 0.01 | 0.00 | 84 | 1019.2 |
| 20260506100003 | 53 | 267 | 0.0 | 3.0 | 0.00 | 0.01 | 0.00 | 84 | 1019.2 |
| 20260506095503 | 53 | 285 | 0.0 | 1.0 | 0.00 | 0.01 | 0.00 | 84 | 1019.3 |
| 20260506095003 | 53 | 286 | 0.0 | 2.0 | 0.00 | 0.01 | 0.00 | 84 | 1019.3 |
| 20260506094524 | 53 | 290 | 0.0 | 2.0 | 0.00 | 0.01 | 0.00 | 84 | 1019.3 |
| 20260506094003 | 53 | 285 | 0.0 | 2.0 | 0.00 | 0.01 | 0.00 | 84 | 1019.3 |
| 20260506093503 | 53 | 274 | 0.0 | 2.0 | 0.00 | 0.01 | 0.00 | 84 | 1019.3 |
| 20260506093003 | 53 | 241 | 1.0 | 2.0 | 0.00 | 0.01 | 0.00 | 84 | 1019.3 |
| 20260506092503 | 53 | 231 | 1.0 | 3.0 | 0.00 | 0.01 | 0.00 | 84 | 1019.2 |
| 20260506092003 | 54 | 234 | 1.0 | 3.0 | 0.00 | 0.01 | 0.00 | 84 | 1019.2 |
| 20260506091524 | 54 | 250 | 1.0 | 4.0 | 0.00 | 0.01 | 0.00 | 84 | 1019.1 |
| 20260506091003 | 54 | 254 | 2.0 | 4.0 | 0.00 | 0.01 | 0.00 | 84 | 1019.1 |
| 20260506090503 | 54 | 253 | 1.0 | 3.0 | 0.00 | 0.01 | 0.00 | 84 | 1019.2 |
| 20260506090003 | 54 | 268 | 1.0 | 3.0 | 0.00 | 0.01 | 0.00 | 84 | 1019.2 |
| 20260506085503 | 54 | 287 | 1.0 | 4.0 | 0.00 | 0.01 | 0.00 | 84 | 1019.2 |
| 20260506085003 | 54 | 287 | 1.0 | 4.0 | 0.00 | 0.01 | 0.00 | 84 | 1019.2 |
| 20260506084503 | 54 | 281 | 1.0 | 5.0 | 0.00 | 0.01 | 0.00 | 84 | 1019.2 |
| 20260506084003 | 54 | 257 | 2.0 | 5.0 | 0.00 | 0.01 | 0.00 | 84 | 1019.2 |
| 20260506083503 | 54 | 251 | 2.0 | 6.0 | 0.00 | 0.01 | 0.00 | 84 | 1019.2 |
| 20260506083003 | 54 | 249 | 2.0 | 6.0 | 0.00 | 0.01 | 0.00 | 84 | 1019.2 |
| 20260506082503 | 54 | 252 | 2.0 | 6.0 | 0.00 | 0.01 | 0.00 | 84 | 1019.3 |
| 20260506082003 | 54 | 253 | 1.0 | 6.0 | 0.00 | 0.01 | 0.00 | 84 | 1019.3 |
| 20260506081503 | 54 | 256 | 2.0 | 5.0 | 0.00 | 0.01 | 0.00 | 84 | 1019.3 |
| 20260506081003 | 54 | 262 | 2.0 | 5.0 | 0.00 | 0.01 | 0.00 | 84 | 1019.3 |
| 20260506080503 | 54 | 263 | 2.0 | 4.0 | 0.00 | 0.01 | 0.00 | 84 | 1019.3 |
| 20260506073503 | 54 | 273 | 1.0 | 5.0 | 0.00 | 0.01 | 0.00 | 83 | 1019.0 |
| 20260506073003 | 54 | 277 | 1.0 | 5.0 | 0.00 | 0.01 | 0.00 | 83 | 1019.0 |
| 20260506072503 | 54 | 281 | 1.0 | 5.0 | 0.00 | 0.01 | 0.00 | 83 | 1019.0 |
| 20260506072003 | 55 | 277 | 1.0 | 5.0 | 0.00 | 0.01 | 0.00 | 83 | 1019.0 |
| 20260506071503 | 55 | 283 | 1.0 | 5.0 | 0.00 | 0.02 | 0.00 | 83 | 1019.0 |
| 20260506071003 | 55 | 291 | 1.0 | 4.0 | 0.00 | 0.02 | 0.00 | 83 | 1019.0 |
| 20260506070503 | 55 | 284 | 2.0 | 7.0 | 0.00 | 0.02 | 0.00 | 83 | 1019.0 |
| 20260506062503 | 55 | 271 | 2.0 | 6.0 | 0.00 | 0.02 | 0.02 | 83 | 1018.6 |
| 20260506062024 | 55 | 263 | 2.0 | 5.0 | 0.00 | 0.02 | 0.02 | 83 | 1018.5 |
| 20260506061503 | 55 | 264 | 2.0 | 6.0 | 0.00 | 0.02 | 0.02 | 83 | 1018.5 |
| 20260506061024 | 55 | 268 | 2.0 | 7.0 | 0.00 | 0.02 | 0.02 | 83 | 1018.5 |
| 20260506060503 | 55 | 271 | 2.0 | 7.0 | 0.00 | 0.02 | 0.02 | 83 | 1018.5 |
| 20260506051003 | 56 | 251 | 2.0 | 7.0 | 0.00 | 0.02 | 0.02 | 83 | 1018.3 |
| 20260506050503 | 56 | 250 | 3.0 | 7.0 | 0.00 | 0.02 | 0.02 | 83 | 1018.3 |
| 20260506045003 | 56 | 254 | 2.0 | 4.0 | 0.00 | 0.02 | 0.02 | 83 | 1018.0 |
| 20260506044503 | 56 | 256 | 2.0 | 4.0 | 0.00 | 0.02 | 0.02 | 83 | 1018.0 |
| 20260506044003 | 56 | 248 | 2.0 | 7.0 | 0.00 | 0.02 | 0.02 | 83 | 1018.0 |
| 20260506043503 | 56 | 244 | 2.0 | 7.0 | 0.00 | 0.02 | 0.02 | 83 | 1018.0 |
| 20260506043003 | 56 | 257 | 2.0 | 5.0 | 0.00 | 0.02 | 0.02 | 83 | 1017.9 |
| 20260506042503 | 56 | 250 | 2.0 | 6.0 | 0.00 | 0.02 | 0.02 | 83 | 1017.9 |
| 20260506042003 | 56 | 242 | 3.0 | 8.0 | 0.00 | 0.02 | 0.02 | 83 | 1017.8 |
| 20260506041503 | 56 | 241 | 4.0 | 8.0 | 0.00 | 0.02 | 0.02 | 83 | 1017.8 |
| 20260506041003 | 56 | 252 | 3.0 | 10.0 | 0.00 | 0.02 | 0.02 | 83 | 1017.6 |
| 20260506040503 | 56 | 253 | 4.0 | 10.0 | 0.00 | 0.02 | 0.02 | 83 | 1017.5 |
| 20260506040003 | 56 | 247 | 4.0 | 10.0 | 0.00 | 0.02 | 0.02 | 83 | 1017.4 |
| 20260506035503 | 56 | 249 | 4.0 | 10.0 | 0.00 | 0.02 | 0.02 | 83 | 1017.4 |
| 20260506035003 | 56 | 249 | 4.0 | 10.0 | 0.00 | 0.02 | 0.02 | 83 | 1017.3 |
| 20260506034503 | 56 | 247 | 5.0 | 10.0 | 0.00 | 0.02 | 0.02 | 83 | 1017.3 |
| 20260506034024 | 56 | 243 | 6.0 | 11.0 | 0.00 | 0.02 | 0.02 | 83 | 1017.2 |
| 20260506033503 | 56 | 242 | 4.0 | 11.0 | 0.00 | 0.02 | 0.02 | 83 | 1017.1 |
| 20260506033003 | 56 | 247 | 4.0 | 10.0 | 0.00 | 0.02 | 0.02 | 83 | 1017.1 |
| 20260506032503 | 56 | 243 | 4.0 | 10.0 | 0.00 | 0.02 | 0.02 | 83 | 1017.0 |
| 20260506032003 | 56 | 236 | 4.0 | 9.0 | 0.00 | 0.02 | 0.02 | 83 | 1017.1 |
| 20260506031524 | 56 | 241 | 5.0 | 12.0 | 0.00 | 0.02 | 0.02 | 83 | 1016.9 |
| 20260506031003 | 56 | 245 | 6.0 | 12.0 | 0.00 | 0.02 | 0.02 | 83 | 1016.9 |
| 20260506030503 | 56 | 244 | 5.0 | 12.0 | 0.00 | 0.02 | 0.02 | 83 | 1016.8 |
| 20260506030003 | 56 | 241 | 4.0 | 9.0 | 0.00 | 0.02 | 0.02 | 82 | 1016.8 |